Time,TemperatureF,DewpointF,PressureIn,WindDirection,WindDirectionDegrees,WindSpeedMPH,WindSpeedGustMPH,Humidity,HourlyPrecipIn,Conditions,Clouds,dailyrainin,SoftwareType,DateUTC
2013-09-23 00:04:00,50.4,46.9,24.89,SW,228,2.0,4.5,88,0.00,,,-99.99,FreeWX 2.04,2013-09-23 06:04:00,
2013-09-23 00:09:00,50.5,47.1,24.89,SW,236,2.0,4.0,88,0.00,,,-99.99,FreeWX 2.04,2013-09-23 06:09:00,
2013-09-23 00:14:00,50.5,46.8,24.89,West,273,3.0,4.9,87,0.00,,,-99.99,FreeWX 2.04,2013-09-23 06:14:00,
2013-09-23 00:19:00,50.4,46.9,24.89,NW,310,3.0,4.9,88,0.00,,,-99.99,FreeWX 2.04,2013-09-23 06:19:00,
2013-09-23 00:24:00,50.4,46.9,24.89,NNW,327,3.0,6.3,88,0.00,,,-99.99,FreeWX 2.04,2013-09-23 06:24:00,
2013-09-23 00:29:00,50.2,46.8,24.89,North,357,3.0,5.4,88,0.00,,,-99.99,FreeWX 2.04,2013-09-23 06:29:00,
2013-09-23 00:34:00,50.2,46.8,24.89,NNE,12,4.0,5.8,88,0.00,,,-99.99,FreeWX 2.04,2013-09-23 06:34:00,
2013-09-23 00:39:00,50.4,46.9,24.89,NNE,12,3.0,4.9,88,0.00,,,-99.99,FreeWX 2.04,2013-09-23 06:39:00,
2013-09-23 00:44:00,50.4,47.3,24.89,NNE,14,2.0,4.5,89,0.00,,,-99.99,FreeWX 2.04,2013-09-23 06:44:00,
2013-09-23 00:49:00,50.4,47.3,24.89,NNE,15,2.0,4.0,89,0.00,,,-99.99,FreeWX 2.04,2013-09-23 06:49:00,
2013-09-23 00:54:00,50.4,47.3,24.89,NNE,15,2.0,4.0,89,0.00,,,-99.99,FreeWX 2.04,2013-09-23 06:54:00,
2013-09-23 00:59:00,50.5,47.5,24.89,NNE,15,3.0,4.0,89,0.00,,,-99.99,FreeWX 2.04,2013-09-23 06:59:00,
2013-09-23 01:04:00,50.5,47.5,24.89,NNE,15,2.0,3.6,89,0.00,,,-99.99,FreeWX 2.04,2013-09-23 07:04:00,
2013-09-23 01:09:00,50.5,47.7,24.89,North,-999,0.0,2.7,90,0.00,,,-99.99,FreeWX 2.04,2013-09-23 07:09:00,
2013-09-23 01:14:00,50.7,47.8,24.89,North,-999,0.0,0.0,90,0.00,,,-99.99,FreeWX 2.04,2013-09-23 07:14:00,
2013-09-23 01:19:00,50.7,47.8,24.89,North,-999,0.0,2.7,90,0.00,,,-99.99,FreeWX 2.04,2013-09-23 07:19:00,
2013-09-23 01:24:00,50.7,48.2,24.89,NNE,15,1.0,4.0,91,0.00,,,-99.99,FreeWX 2.04,2013-09-23 07:24:00,
2013-09-23 01:29:00,50.4,47.8,24.89,North,9,3.0,5.4,91,0.00,,,-99.99,FreeWX 2.04,2013-09-23 07:29:00,
2013-09-23 01:34:00,50.0,47.5,24.89,NNW,338,3.0,4.9,91,0.00,,,-99.99,FreeWX 2.04,2013-09-23 07:34:00,
2013-09-23 01:39:00,50.0,47.1,24.89,NW,319,3.0,5.4,90,0.00,,,-99.99,FreeWX 2.04,2013-09-23 07:39:00,
2013-09-23 01:44:00,50.2,47.3,24.89,NW,321,3.0,4.9,90,0.00,,,-99.99,FreeWX 2.04,2013-09-23 07:44:00,
2013-09-23 01:49:00,50.2,47.1,24.89,NW,320,3.0,4.9,89,0.00,,,-99.99,FreeWX 2.04,2013-09-23 07:49:00,
2013-09-23 01:54:00,50.2,46.8,24.89,NW,320,3.0,4.5,88,0.00,,,-99.99,FreeWX 2.04,2013-09-23 07:54:00,
2013-09-23 01:59:00,50.4,46.9,24.89,NW,320,2.0,4.0,88,0.00,,,-99.99,FreeWX 2.04,2013-09-23 07:59:00,
2013-09-23 02:04:00,50.4,46.6,24.92,NW,320,2.0,4.5,87,0.00,,,-99.99,FreeWX 2.04,2013-09-23 08:04:00,
2013-09-23 02:09:00,50.4,46.6,24.92,NW,320,3.0,4.0,87,0.00,,,-99.99,FreeWX 2.04,2013-09-23 08:09:00,
2013-09-23 02:14:00,50.4,46.4,24.92,NW,320,3.0,4.0,86,0.00,,,-99.99,FreeWX 2.04,2013-09-23 08:14:00,
2013-09-23 02:19:00,50.4,46.4,24.92,NW,320,1.0,3.1,86,0.00,,,-99.99,FreeWX 2.04,2013-09-23 08:19:00,
2013-09-23 02:24:00,50.4,46.4,24.92,North,-999,0.0,0.0,86,0.00,,,-99.99,FreeWX 2.04,2013-09-23 08:24:00,
2013-09-23 02:29:00,50.4,46.4,24.92,North,-999,0.0,2.7,86,0.00,,,-99.99,FreeWX 2.04,2013-09-23 08:29:00,
2013-09-23 02:34:00,50.4,46.4,24.92,North,-999,0.0,0.0,86,0.00,,,-99.99,FreeWX 2.04,2013-09-23 08:34:00,
2013-09-23 02:39:00,50.2,46.2,24.92,North,-999,0.0,2.7,86,0.00,,,-99.99,FreeWX 2.04,2013-09-23 08:39:00,
2013-09-23 02:44:00,50.2,46.2,24.92,North,-999,0.0,0.0,86,0.00,,,-99.99,FreeWX 2.04,2013-09-23 08:44:00,
2013-09-23 02:49:00,50.2,46.2,24.92,North,-999,0.0,0.0,86,0.00,,,-99.99,FreeWX 2.04,2013-09-23 08:49:00,
2013-09-23 02:54:00,50.2,46.2,24.92,North,-999,0.0,0.0,86,0.00,,,-99.99,FreeWX 2.04,2013-09-23 08:54:00,
2013-09-23 02:59:00,50.2,46.4,24.92,North,-999,0.0,0.0,87,0.00,,,-99.99,FreeWX 2.04,2013-09-23 08:59:00,
2013-09-23 03:04:00,50.2,46.4,24.92,North,-999,0.0,0.0,87,0.00,,,-99.99,FreeWX 2.04,2013-09-23 09:04:00,
2013-09-23 03:09:00,50.2,46.4,24.92,North,-999,0.0,0.0,87,0.00,,,-99.99,FreeWX 2.04,2013-09-23 09:09:00,
2013-09-23 03:14:00,50.2,46.4,24.92,North,-999,0.0,2.7,87,0.00,,,-99.99,FreeWX 2.04,2013-09-23 09:14:00,
2013-09-23 03:19:00,50.2,46.8,24.92,North,-999,0.0,0.0,88,0.00,,,-99.99,FreeWX 2.04,2013-09-23 09:19:00,
2013-09-23 03:24:00,50.0,46.6,24.92,North,-999,0.0,0.0,88,0.00,,,-99.99,FreeWX 2.04,2013-09-23 09:24:00,
2013-09-23 03:29:00,50.0,46.6,24.92,North,-999,0.0,0.0,88,0.00,,,-99.99,FreeWX 2.04,2013-09-23 09:29:00,
2013-09-23 03:34:00,50.0,46.6,24.95,North,-999,0.0,0.0,88,0.00,,,-99.99,FreeWX 2.04,2013-09-23 09:34:00,
2013-09-23 03:39:00,50.2,47.1,24.95,North,-999,0.0,0.0,89,0.00,,,-99.99,FreeWX 2.04,2013-09-23 09:39:00,
2013-09-23 03:44:00,50.0,46.9,24.95,North,-999,0.0,0.0,89,0.00,,,-99.99,FreeWX 2.04,2013-09-23 09:44:00,
2013-09-23 03:49:00,50.0,47.1,24.95,North,-999,0.0,2.7,90,0.00,,,-99.99,FreeWX 2.04,2013-09-23 09:49:00,
2013-09-23 03:54:00,50.0,47.1,24.95,North,-999,0.0,2.7,90,0.00,,,-99.99,FreeWX 2.04,2013-09-23 09:54:00,
2013-09-23 03:59:00,50.0,46.9,24.95,North,-999,0.0,3.6,89,0.00,,,-99.99,FreeWX 2.04,2013-09-23 09:59:00,
2013-09-23 04:04:00,50.4,46.9,24.95,NW,320,1.0,2.7,88,0.00,,,-99.99,FreeWX 2.04,2013-09-23 10:04:00,
2013-09-23 04:10:00,50.5,46.8,24.95,North,-999,0.0,3.6,87,0.00,,,-99.99,FreeWX 2.04,2013-09-23 10:10:00,
2013-09-23 04:15:00,50.9,46.9,24.95,NW,320,1.0,3.6,86,0.00,,,-99.99,FreeWX 2.04,2013-09-23 10:15:00,
2013-09-23 04:20:00,51.1,47.1,24.95,North,-999,0.0,2.7,86,0.00,,,-99.99,FreeWX 2.04,2013-09-23 10:20:00,
2013-09-23 04:25:00,50.9,46.9,24.95,North,-999,0.0,3.1,86,0.00,,,-99.99,FreeWX 2.04,2013-09-23 10:25:00,
2013-09-23 04:30:00,50.7,46.9,24.95,NW,320,1.0,3.1,87,0.00,,,-99.99,FreeWX 2.04,2013-09-23 10:30:00,
2013-09-23 04:35:00,50.5,46.8,24.95,North,-999,0.0,0.0,87,0.00,,,-99.99,FreeWX 2.04,2013-09-23 10:35:00,
2013-09-23 04:40:00,50.2,46.8,24.95,NW,320,1.0,3.1,88,0.00,,,-99.99,FreeWX 2.04,2013-09-23 10:40:00,
2013-09-23 04:45:00,50.4,46.9,24.95,NW,320,2.0,4.5,88,0.00,,,-99.99,FreeWX 2.04,2013-09-23 10:45:00,
2013-09-23 04:50:00,50.4,46.9,24.95,NW,320,2.0,4.0,88,0.00,,,-99.99,FreeWX 2.04,2013-09-23 10:50:00,
2013-09-23 04:55:00,50.2,46.8,24.95,NW,320,2.0,3.6,88,0.00,,,-99.99,FreeWX 2.04,2013-09-23 10:55:00,
2013-09-23 05:00:00,50.2,46.8,24.95,North,-999,0.0,0.0,88,0.00,,,-99.99,FreeWX 2.04,2013-09-23 11:00:00,
2013-09-23 05:05:00,50.0,46.9,24.95,North,-999,0.0,0.0,89,0.00,,,-99.99,FreeWX 2.04,2013-09-23 11:05:00,
2013-09-23 05:10:00,50.2,47.1,24.95,North,-999,0.0,3.1,89,0.00,,,-99.99,FreeWX 2.04,2013-09-23 11:10:00,
2013-09-23 05:15:00,49.5,46.4,24.95,North,-999,0.0,2.7,89,0.00,,,-99.99,FreeWX 2.04,2013-09-23 11:15:00,
2013-09-23 05:20:00,49.5,46.6,24.95,North,-999,0.0,3.1,90,0.00,,,-99.99,FreeWX 2.04,2013-09-23 11:20:00,
2013-09-23 05:25:00,49.3,46.4,24.95,NW,320,1.0,3.6,90,0.00,,,-99.99,FreeWX 2.04,2013-09-23 11:25:00,
2013-09-23 05:30:00,49.1,46.2,24.95,NW,320,1.0,3.6,90,0.00,,,-99.99,FreeWX 2.04,2013-09-23 11:30:00,
2013-09-23 05:35:00,48.9,46.0,24.98,NW,320,1.0,2.7,90,0.00,,,-99.99,FreeWX 2.04,2013-09-23 11:35:00,
2013-09-23 05:40:00,48.7,46.2,24.98,North,-999,0.0,2.7,91,0.00,,,-99.99,FreeWX 2.04,2013-09-23 11:40:00,
2013-09-23 05:45:00,48.6,46.0,24.98,North,-999,0.0,0.0,91,0.00,,,-99.99,FreeWX 2.04,2013-09-23 11:45:00,
2013-09-23 05:50:00,48.6,46.0,24.98,North,-999,0.0,3.1,91,0.00,,,-99.99,FreeWX 2.04,2013-09-23 11:50:00,
2013-09-23 05:55:00,48.4,45.9,24.98,North,-999,0.0,0.0,91,0.00,,,-99.99,FreeWX 2.04,2013-09-23 11:55:00,
2013-09-23 06:00:00,48.4,46.2,24.98,North,-999,0.0,0.0,92,0.00,,,-99.99,FreeWX 2.04,2013-09-23 12:00:00,
2013-09-23 06:05:00,48.0,45.9,24.98,North,-999,0.0,3.1,92,0.00,,,-99.99,FreeWX 2.04,2013-09-23 12:05:00,
2013-09-23 06:10:00,47.5,45.3,24.98,North,-999,0.0,2.7,92,0.00,,,-99.99,FreeWX 2.04,2013-09-23 12:10:00,
2013-09-23 06:15:00,47.7,45.5,24.98,North,-999,0.0,3.1,92,0.00,,,-99.99,FreeWX 2.04,2013-09-23 12:15:00,
2013-09-23 06:25:00,47.3,45.1,24.98,North,-999,0.0,0.0,92,0.00,,,-99.99,FreeWX 2.04,2013-09-23 12:25:00,
2013-09-23 06:30:00,47.5,45.3,24.98,North,-999,0.0,0.0,92,0.00,,,-99.99,FreeWX 2.04,2013-09-23 12:30:00,
2013-09-23 06:35:00,47.3,45.3,24.98,North,-999,0.0,2.7,93,0.00,,,-99.99,FreeWX 2.04,2013-09-23 12:35:00,
2013-09-23 06:40:00,47.5,45.3,24.98,North,-999,0.0,0.0,92,0.00,,,-99.99,FreeWX 2.04,2013-09-23 12:40:00,
2013-09-23 06:45:00,47.3,45.1,24.98,North,-999,0.0,0.0,92,0.00,,,-99.99,FreeWX 2.04,2013-09-23 12:45:00,
2013-09-23 06:56:00,47.3,45.3,25.01,North,-999,0.0,0.0,93,0.00,,,-99.99,FreeWX 2.04,2013-09-23 12:56:00,
2013-09-23 07:01:00,47.7,45.5,25.01,North,-999,0.0,0.0,92,0.00,,,-99.99,FreeWX 2.04,2013-09-23 13:01:00,
2013-09-23 07:06:00,47.5,45.5,25.01,North,-999,0.0,0.0,93,0.00,,,-99.99,FreeWX 2.04,2013-09-23 13:06:00,
2013-09-23 07:11:00,47.5,45.5,25.01,North,-999,0.0,0.0,93,0.00,,,-99.99,FreeWX 2.04,2013-09-23 13:11:00,
2013-09-23 07:16:00,47.3,45.3,25.01,North,-999,0.0,0.0,93,0.00,,,-99.99,FreeWX 2.04,2013-09-23 13:16:00,
2013-09-23 07:22:00,47.3,45.3,25.01,North,-999,0.0,0.0,93,0.00,,,-99.99,FreeWX 2.04,2013-09-23 13:22:00,
2013-09-23 07:27:00,47.3,45.3,25.01,North,-999,0.0,0.0,93,0.00,,,-99.99,FreeWX 2.04,2013-09-23 13:27:00,
2013-09-23 07:32:00,47.3,45.3,25.01,North,-999,0.0,3.6,93,0.00,,,-99.99,FreeWX 2.04,2013-09-23 13:32:00,
2013-09-23 07:37:00,47.3,45.3,25.01,North,-999,0.0,3.1,93,0.00,,,-99.99,FreeWX 2.04,2013-09-23 13:37:00,
2013-09-23 07:42:00,47.3,45.3,25.01,North,-999,0.0,0.0,93,0.00,,,-99.99,FreeWX 2.04,2013-09-23 13:42:00,
2013-09-23 07:47:00,48.4,46.4,25.01,North,-999,0.0,2.7,93,0.00,,,-99.99,FreeWX 2.04,2013-09-23 13:47:00,
2013-09-23 07:52:00,48.7,46.8,25.04,North,-999,0.0,3.1,93,0.00,,,-99.99,FreeWX 2.04,2013-09-23 13:52:00,
2013-09-23 07:57:00,50.0,47.8,25.04,North,-999,0.0,0.0,92,0.00,,,-99.99,FreeWX 2.04,2013-09-23 13:57:00,
2013-09-23 08:02:00,50.5,48.4,25.04,North,-999,0.0,0.0,92,0.00,,,-99.99,FreeWX 2.04,2013-09-23 14:02:00,
2013-09-23 08:07:00,51.4,49.3,25.04,North,-999,0.0,0.0,92,0.00,,,-99.99,FreeWX 2.04,2013-09-23 14:07:00,
2013-09-23 08:12:00,52.9,50.4,25.04,North,-999,0.0,0.0,91,0.00,,,-99.99,FreeWX 2.04,2013-09-23 14:12:00,
2013-09-23 08:17:00,53.6,51.1,25.04,North,-999,0.0,0.0,91,0.00,,,-99.99,FreeWX 2.04,2013-09-23 14:17:00,
2013-09-23 08:22:00,54.5,51.3,25.04,North,-999,0.0,2.7,89,0.00,,,-99.99,FreeWX 2.04,2013-09-23 14:22:00,
2013-09-23 08:27:00,54.7,50.5,25.04,North,-999,0.0,2.7,86,0.00,,,-99.99,FreeWX 2.04,2013-09-23 14:27:00,
2013-09-23 08:32:00,54.9,50.4,25.04,North,-999,0.0,3.1,85,0.00,,,-99.99,FreeWX 2.04,2013-09-23 14:32:00,
2013-09-23 08:37:00,55.2,50.2,25.04,North,-999,0.0,3.1,83,0.00,,,-99.99,FreeWX 2.04,2013-09-23 14:37:00,
2013-09-23 08:42:00,56.3,50.9,25.04,North,-999,0.0,3.1,82,0.00,,,-99.99,FreeWX 2.04,2013-09-23 14:42:00,
2013-09-23 08:47:00,56.3,48.2,25.04,North,-999,0.0,3.6,74,0.00,,,-99.99,FreeWX 2.04,2013-09-23 14:47:00,
2013-09-23 08:52:00,55.9,47.8,25.04,North,-999,0.0,3.6,74,0.00,,,-99.99,FreeWX 2.04,2013-09-23 14:52:00,
2013-09-23 08:57:00,55.9,47.5,25.04,NW,320,1.0,3.1,73,0.00,,,-99.99,FreeWX 2.04,2013-09-23 14:57:00,
2013-09-23 09:02:00,55.9,47.1,25.04,NW,320,1.0,3.6,72,0.00,,,-99.99,FreeWX 2.04,2013-09-23 15:02:00,
2013-09-23 09:07:00,57.0,47.7,25.04,NW,320,1.0,2.7,71,0.00,,,-99.99,FreeWX 2.04,2013-09-23 15:07:00,
2013-09-23 09:12:00,57.7,47.3,25.04,North,-999,0.0,2.7,68,0.00,,,-99.99,FreeWX 2.04,2013-09-23 15:12:00,
2013-09-23 09:17:00,57.2,46.8,25.04,NW,320,1.0,4.0,68,0.00,,,-99.99,FreeWX 2.04,2013-09-23 15:17:00,
2013-09-23 09:22:00,56.3,45.5,25.07,NW,312,2.0,4.9,67,0.00,,,-99.99,FreeWX 2.04,2013-09-23 15:22:00,
2013-09-23 09:27:00,55.6,44.4,25.07,WNW,285,3.0,5.8,66,0.00,,,-99.99,FreeWX 2.04,2013-09-23 15:27:00,
2013-09-23 09:32:00,56.1,45.3,25.07,West,266,3.0,4.0,67,0.00,,,-99.99,FreeWX 2.04,2013-09-23 15:32:00,
2013-09-23 09:37:00,56.3,47.3,25.07,West,268,2.0,6.7,72,0.00,,,-99.99,FreeWX 2.04,2013-09-23 15:37:00,
2013-09-23 09:42:00,55.9,49.1,25.07,West,278,4.0,8.3,78,0.00,,,-99.99,FreeWX 2.04,2013-09-23 15:42:00,
2013-09-23 09:47:00,55.9,49.8,25.07,WNW,288,4.0,5.4,80,0.00,,,-99.99,FreeWX 2.04,2013-09-23 15:47:00,
2013-09-23 09:52:00,55.9,49.8,25.07,West,262,4.0,6.3,80,0.00,,,-99.99,FreeWX 2.04,2013-09-23 15:52:00,
2013-09-23 09:57:00,55.8,48.9,25.07,WSW,240,4.0,6.3,78,0.00,,,-99.99,FreeWX 2.04,2013-09-23 15:57:00,
2013-09-23 10:02:00,56.3,49.8,25.07,WSW,254,4.0,5.8,79,0.00,,,-99.99,FreeWX 2.04,2013-09-23 16:02:00,
2013-09-23 10:07:00,56.7,49.8,25.07,SW,236,3.0,6.7,78,0.00,,,-99.99,FreeWX 2.04,2013-09-23 16:07:00,
2013-09-23 10:12:00,56.7,49.1,25.07,SSW,206,3.0,5.4,76,0.00,,,-99.99,FreeWX 2.04,2013-09-23 16:12:00,
2013-09-23 10:17:00,56.8,48.9,25.07,SW,227,3.0,5.8,75,0.00,,,-99.99,FreeWX 2.04,2013-09-23 16:17:00,
2013-09-23 10:22:00,58.1,49.8,25.07,WSW,247,2.0,4.5,74,0.00,,,-99.99,FreeWX 2.04,2013-09-23 16:22:00,
2013-09-23 10:27:00,58.6,48.6,25.07,WSW,249,1.0,4.9,69,0.00,,,-99.99,FreeWX 2.04,2013-09-23 16:27:00,
2013-09-23 10:32:00,58.1,46.4,25.07,WSW,252,2.0,5.4,65,0.00,,,-99.99,FreeWX 2.04,2013-09-23 16:32:00,
2013-09-23 10:37:00,58.6,47.3,25.07,WSW,254,2.0,4.5,66,0.00,,,-99.99,FreeWX 2.04,2013-09-23 16:37:00,
2013-09-23 10:43:00,59.0,43.7,25.07,SW,226,2.0,5.4,57,0.00,,,-99.99,FreeWX 2.04,2013-09-23 16:43:00,
2013-09-23 10:48:00,59.2,43.9,25.07,SW,216,3.0,6.9,57,0.00,,,-99.99,FreeWX 2.04,2013-09-23 16:48:00,
2013-09-23 10:53:00,58.8,42.6,25.07,SW,225,4.0,9.2,55,0.00,,,-99.99,FreeWX 2.04,2013-09-23 16:53:00,
2013-09-23 10:58:00,58.8,45.3,25.07,SW,236,6.0,10.1,61,0.00,,,-99.99,FreeWX 2.04,2013-09-23 16:58:00,
2013-09-23 11:03:00,59.0,40.8,25.07,SW,234,6.0,11.0,51,0.00,,,-99.99,FreeWX 2.04,2013-09-23 17:03:00,
2013-09-23 11:08:00,59.7,39.9,25.07,SSW,210,6.0,10.5,48,0.00,,,-99.99,FreeWX 2.04,2013-09-23 17:08:00,
2013-09-23 11:13:00,60.1,36.3,25.07,SSW,208,7.0,11.0,41,0.00,,,-99.99,FreeWX 2.04,2013-09-23 17:13:00,
2013-09-23 11:18:00,60.1,36.3,25.07,SSW,204,8.0,13.9,41,0.00,,,-99.99,FreeWX 2.04,2013-09-23 17:18:00,
2013-09-23 11:23:00,60.3,33.8,25.07,SSW,206,8.0,12.1,37,0.00,,,-99.99,FreeWX 2.04,2013-09-23 17:23:00,
2013-09-23 11:28:00,60.6,34.2,25.07,SSW,210,7.0,10.1,37,0.00,,,-99.99,FreeWX 2.04,2013-09-23 17:28:00,
2013-09-23 11:33:00,61.2,36.0,25.07,SSW,201,8.0,12.1,39,0.00,,,-99.99,FreeWX 2.04,2013-09-23 17:33:00,
2013-09-23 11:38:00,61.3,35.6,25.07,SSW,197,9.0,13.0,38,0.00,,,-99.99,FreeWX 2.04,2013-09-23 17:38:00,
2013-09-23 11:43:00,62.4,37.2,25.07,SSW,193,9.0,14.3,39,0.00,,,-99.99,FreeWX 2.04,2013-09-23 17:43:00,
2013-09-23 11:48:00,61.2,33.3,25.07,South,185,10.0,15.4,35,0.00,,,-99.99,FreeWX 2.04,2013-09-23 17:48:00,
2013-09-23 11:53:00,61.3,32.7,25.07,South,189,10.0,15.2,34,0.00,,,-99.99,FreeWX 2.04,2013-09-23 17:53:00,
2013-09-23 11:58:00,61.7,34.5,25.07,South,190,10.0,12.5,36,0.00,,,-99.99,FreeWX 2.04,2013-09-23 17:58:00,
2013-09-23 12:03:00,61.9,33.3,25.07,South,189,10.0,12.5,34,0.00,,,-99.99,FreeWX 2.04,2013-09-23 18:03:00,
2013-09-23 12:08:00,62.4,35.8,25.07,SSW,198,7.0,8.3,37,0.00,,,-99.99,FreeWX 2.04,2013-09-23 18:08:00,
2013-09-23 12:13:00,62.4,34.3,25.07,SSW,202,7.0,13.4,35,0.00,,,-99.99,FreeWX 2.04,2013-09-23 18:13:00,
2013-09-23 12:18:00,62.8,34.7,25.07,SSW,193,9.0,13.0,35,0.00,,,-99.99,FreeWX 2.04,2013-09-23 18:18:00,
2013-09-23 12:23:00,62.6,33.8,25.10,SSW,192,8.0,13.4,34,0.00,,,-99.99,FreeWX 2.04,2013-09-23 18:23:00,
2013-09-23 12:28:00,62.6,33.8,25.10,South,187,7.0,12.1,34,0.00,,,-99.99,FreeWX 2.04,2013-09-23 18:28:00,
2013-09-23 12:33:00,62.2,28.8,25.10,SSW,193,8.0,13.0,28,0.00,,,-99.99,FreeWX 2.04,2013-09-23 18:33:00,
2013-09-23 12:38:00,62.6,34.5,25.07,SW,225,7.0,10.5,35,0.00,,,-99.99,FreeWX 2.04,2013-09-23 18:38:00,
2013-09-23 12:43:00,62.8,31.6,25.07,SW,225,6.0,12.5,31,0.00,,,-99.99,FreeWX 2.04,2013-09-23 18:43:00,
2013-09-23 12:48:00,63.0,34.2,25.07,SSW,194,8.0,13.9,34,0.00,,,-99.99,FreeWX 2.04,2013-09-23 18:48:00,
2013-09-23 12:53:00,63.5,33.8,25.10,South,184,7.0,11.6,33,0.00,,,-99.99,FreeWX 2.04,2013-09-23 18:53:00,
2013-09-23 12:58:00,62.8,31.6,25.10,SSW,196,7.0,14.8,31,0.00,,,-99.99,FreeWX 2.04,2013-09-23 18:58:00,
2013-09-23 13:03:00,63.0,33.4,25.10,SW,223,8.0,11.6,33,0.00,,,-99.99,FreeWX 2.04,2013-09-23 19:03:00,
2013-09-23 13:08:00,63.9,34.2,25.10,SW,223,7.0,13.0,33,0.00,,,-99.99,FreeWX 2.04,2013-09-23 19:08:00,
2013-09-23 13:13:00,63.3,30.6,25.10,SSW,207,7.0,11.0,29,0.00,,,-99.99,FreeWX 2.04,2013-09-23 19:13:00,
2013-09-23 13:18:00,63.3,33.8,25.10,SSW,202,8.0,11.2,33,0.00,,,-99.99,FreeWX 2.04,2013-09-23 19:18:00,
2013-09-23 13:23:00,63.5,33.8,25.10,SSW,203,8.0,11.2,33,0.00,,,-99.99,FreeWX 2.04,2013-09-23 19:23:00,
2013-09-23 13:28:00,63.1,29.5,25.10,SW,225,7.0,9.6,28,0.00,,,-99.99,FreeWX 2.04,2013-09-23 19:28:00,
2013-09-23 13:33:00,63.3,29.7,25.10,SW,226,7.0,12.5,28,0.00,,,-99.99,FreeWX 2.04,2013-09-23 19:33:00,
2013-09-23 13:38:00,63.5,30.7,25.10,SW,223,7.0,9.6,29,0.00,,,-99.99,FreeWX 2.04,2013-09-23 19:38:00,
2013-09-23 13:43:00,63.9,31.8,25.10,SW,223,6.0,10.5,30,0.00,,,-99.99,FreeWX 2.04,2013-09-23 19:43:00,
2013-09-23 13:48:00,63.9,28.2,25.10,SSW,209,7.0,11.6,26,0.00,,,-99.99,FreeWX 2.04,2013-09-23 19:48:00,
2013-09-23 13:53:00,64.4,28.8,25.10,SSW,192,7.0,11.0,26,0.00,,,-99.99,FreeWX 2.04,2013-09-23 19:53:00,
2013-09-23 13:58:00,64.2,28.6,25.10,South,183,6.0,8.7,26,0.00,,,-99.99,FreeWX 2.04,2013-09-23 19:58:00,
2013-09-23 14:03:00,64.4,29.7,25.10,SSW,193,6.0,11.6,27,0.00,,,-99.99,FreeWX 2.04,2013-09-23 20:03:00,
2013-09-23 14:08:00,64.6,29.8,25.07,SSW,202,7.0,11.6,27,0.00,,,-99.99,FreeWX 2.04,2013-09-23 20:08:00,
2013-09-23 14:13:00,64.9,31.1,25.07,SSW,209,7.0,11.2,28,0.00,,,-99.99,FreeWX 2.04,2013-09-23 20:13:00,
2013-09-23 14:18:00,64.9,28.2,25.07,SSW,199,7.0,12.5,25,0.00,,,-99.99,FreeWX 2.04,2013-09-23 20:18:00,
2013-09-23 14:23:00,65.3,27.5,25.07,South,181,7.0,10.1,24,0.00,,,-99.99,FreeWX 2.04,2013-09-23 20:23:00,
2013-09-23 14:28:00,65.3,27.5,25.07,South,186,6.0,9.2,24,0.00,,,-99.99,FreeWX 2.04,2013-09-23 20:28:00,
2013-09-23 14:33:00,65.5,28.8,25.07,SSW,200,6.0,9.6,25,0.00,,,-99.99,FreeWX 2.04,2013-09-23 20:33:00,
2013-09-23 14:38:00,65.8,27.0,25.07,SSW,193,6.0,12.5,23,0.00,,,-99.99,FreeWX 2.04,2013-09-23 20:38:00,
2013-09-23 14:43:00,65.5,26.8,25.07,South,180,6.0,11.0,23,0.00,,,-99.99,FreeWX 2.04,2013-09-23 20:43:00,
2013-09-23 14:48:00,65.8,28.0,25.07,South,171,7.0,11.6,24,0.00,,,-99.99,FreeWX 2.04,2013-09-23 20:48:00,
2013-09-23 14:53:00,66.2,27.3,25.10,South,177,7.0,13.0,23,0.00,,,-99.99,FreeWX 2.04,2013-09-23 20:53:00,
2013-09-23 14:58:00,66.0,26.1,25.10,South,188,8.0,12.1,22,0.00,,,-99.99,FreeWX 2.04,2013-09-23 20:58:00,
2013-09-23 15:03:00,66.4,27.5,25.10,South,189,7.0,11.0,23,0.00,,,-99.99,FreeWX 2.04,2013-09-23 21:03:00,
2013-09-23 15:08:00,66.2,23.9,25.10,South,188,7.0,11.2,20,0.00,,,-99.99,FreeWX 2.04,2013-09-23 21:08:00,
2013-09-23 15:13:00,66.6,27.7,25.10,South,187,8.0,14.3,23,0.00,,,-99.99,FreeWX 2.04,2013-09-23 21:13:00,
2013-09-23 15:18:00,66.2,27.3,25.10,South,190,8.0,11.6,23,0.00,,,-99.99,FreeWX 2.04,2013-09-23 21:18:00,
2013-09-23 15:23:00,66.9,20.7,25.10,South,172,7.0,11.0,17,0.00,,,-99.99,FreeWX 2.04,2013-09-23 21:23:00,
2013-09-23 15:28:00,67.3,27.1,25.10,SSE,157,5.0,12.5,22,0.00,,,-99.99,FreeWX 2.04,2013-09-23 21:28:00,
2013-09-23 15:33:00,66.4,12.2,25.10,South,169,6.0,11.0,12,0.00,,,-99.99,FreeWX 2.04,2013-09-23 21:33:00,
2013-09-23 15:38:00,67.1,18.0,25.10,South,170,7.0,10.5,15,0.00,,,-99.99,FreeWX 2.04,2013-09-23 21:38:00,
2013-09-23 15:43:00,67.5,18.1,25.10,South,182,6.0,7.4,15,0.00,,,-99.99,FreeWX 2.04,2013-09-23 21:43:00,
2013-09-23 15:48:00,67.3,18.1,25.10,South,189,6.0,10.1,15,0.00,,,-99.99,FreeWX 2.04,2013-09-23 21:48:00,
2013-09-23 15:53:00,67.5,21.2,25.10,South,183,7.0,9.6,17,0.00,,,-99.99,FreeWX 2.04,2013-09-23 21:53:00,
2013-09-23 15:58:00,67.6,18.3,25.10,SSE,165,7.0,11.6,15,0.00,,,-99.99,FreeWX 2.04,2013-09-23 21:58:00,
2013-09-23 16:03:00,68.2,18.9,25.10,SE,146,7.0,11.0,15,0.00,,,-99.99,FreeWX 2.04,2013-09-23 22:03:00,
2013-09-23 16:08:00,67.5,13.1,25.10,SSE,167,7.0,11.6,12,0.00,,,-99.99,FreeWX 2.04,2013-09-23 22:08:00,
2013-09-23 16:13:00,66.6,12.4,25.10,SSW,201,7.0,10.1,12,0.00,,,-99.99,FreeWX 2.04,2013-09-23 22:13:00,
2013-09-23 16:18:00,67.1,18.0,25.10,SSW,204,6.0,10.1,15,0.00,,,-99.99,FreeWX 2.04,2013-09-23 22:18:00,
2013-09-23 16:23:00,67.3,18.1,25.10,SSW,196,6.0,9.2,15,0.00,,,-99.99,FreeWX 2.04,2013-09-23 22:23:00,
2013-09-23 16:28:00,67.8,13.5,25.10,South,189,5.0,7.4,12,0.00,,,-99.99,FreeWX 2.04,2013-09-23 22:28:00,
2013-09-23 16:33:00,68.2,21.7,25.10,South,188,4.0,8.3,17,0.00,,,-99.99,FreeWX 2.04,2013-09-23 22:33:00,
2013-09-23 16:38:00,67.8,18.5,25.10,South,189,5.0,10.1,15,0.00,,,-99.99,FreeWX 2.04,2013-09-23 22:38:00,
2013-09-23 16:43:00,67.6,21.2,25.10,SSW,198,5.0,8.7,17,0.00,,,-99.99,FreeWX 2.04,2013-09-23 22:43:00,
2013-09-23 16:48:00,67.5,18.1,25.10,SSW,205,5.0,8.7,15,0.00,,,-99.99,FreeWX 2.04,2013-09-23 22:48:00,
2013-09-23 16:53:00,67.3,18.1,25.10,South,183,5.0,8.7,15,0.00,,,-99.99,FreeWX 2.04,2013-09-23 22:53:00,
2013-09-23 16:58:00,67.1,24.6,25.10,South,171,5.0,8.3,20,0.00,,,-99.99,FreeWX 2.04,2013-09-23 22:58:00,
2013-09-23 17:03:00,66.9,17.8,25.10,South,190,5.0,8.3,15,0.00,,,-99.99,FreeWX 2.04,2013-09-23 23:03:00,
2013-09-23 17:08:00,66.4,17.4,25.10,South,189,5.0,7.8,15,0.00,,,-99.99,FreeWX 2.04,2013-09-23 23:08:00,
2013-09-23 17:13:00,66.9,24.6,25.10,South,184,4.0,7.8,20,0.00,,,-99.99,FreeWX 2.04,2013-09-23 23:13:00,
2013-09-23 17:18:00,67.3,18.1,25.10,SSW,192,4.0,6.7,15,0.00,,,-99.99,FreeWX 2.04,2013-09-23 23:18:00,
2013-09-23 17:23:00,67.5,18.1,25.10,SSW,201,4.0,6.7,15,0.00,,,-99.99,FreeWX 2.04,2013-09-23 23:23:00,
2013-09-23 17:28:00,67.5,18.1,25.10,SSW,206,4.0,7.8,15,0.00,,,-99.99,FreeWX 2.04,2013-09-23 23:28:00,
2013-09-23 17:33:00,67.5,21.2,25.10,SSW,198,5.0,10.1,17,0.00,,,-99.99,FreeWX 2.04,2013-09-23 23:33:00,
2013-09-23 17:38:00,67.5,18.1,25.10,South,186,6.0,7.8,15,0.00,,,-99.99,FreeWX 2.04,2013-09-23 23:38:00,
2013-09-23 17:43:00,67.6,25.2,25.10,South,182,4.0,7.8,20,0.00,,,-99.99,FreeWX 2.04,2013-09-23 23:43:00,
2013-09-23 17:48:00,67.5,27.3,25.10,South,177,5.0,9.6,22,0.00,,,-99.99,FreeWX 2.04,2013-09-23 23:48:00,
2013-09-23 17:53:00,66.9,24.6,25.10,SSW,207,6.0,8.3,20,0.00,,,-99.99,FreeWX 2.04,2013-09-23 23:53:00,
2013-09-23 17:58:00,66.9,24.6,25.10,WSW,239,5.0,6.9,20,0.00,,,-99.99,FreeWX 2.04,2013-09-23 23:58:00,
2013-09-23 18:03:00,66.7,26.6,25.10,WSW,239,4.0,6.9,22,0.00,,,-99.99,FreeWX 2.04,2013-09-24 00:03:00,
2013-09-23 18:08:00,66.6,24.3,25.10,WSW,249,4.0,5.8,20,0.00,,,-99.99,FreeWX 2.04,2013-09-24 00:08:00,
2013-09-23 18:14:00,66.6,24.3,25.10,WSW,257,4.0,6.9,20,0.00,,,-99.99,FreeWX 2.04,2013-09-24 00:14:00,
2013-09-23 18:19:00,66.4,27.5,25.10,WSW,244,5.0,6.9,23,0.00,,,-99.99,FreeWX 2.04,2013-09-24 00:19:00,
2013-09-23 18:24:00,66.2,27.3,25.10,SW,231,5.0,6.7,23,0.00,,,-99.99,FreeWX 2.04,2013-09-24 00:24:00,
2013-09-23 18:29:00,66.0,28.2,25.10,SW,215,5.0,9.2,24,0.00,,,-99.99,FreeWX 2.04,2013-09-24 00:29:00,
2013-09-23 18:34:00,65.8,29.1,25.10,SSW,195,5.0,7.4,25,0.00,,,-99.99,FreeWX 2.04,2013-09-24 00:34:00,
2013-09-23 18:39:00,65.3,30.4,25.10,South,180,5.0,6.3,27,0.00,,,-99.99,FreeWX 2.04,2013-09-24 00:39:00,
2013-09-23 18:44:00,64.2,33.8,25.10,SSE,166,4.0,5.8,32,0.00,,,-99.99,FreeWX 2.04,2013-09-24 00:44:00,
2013-09-23 18:49:00,63.7,31.6,25.10,SSE,153,3.0,5.4,30,0.00,,,-99.99,FreeWX 2.04,2013-09-24 00:49:00,
2013-09-23 18:54:00,63.3,33.8,25.10,SE,142,2.0,3.1,33,0.00,,,-99.99,FreeWX 2.04,2013-09-24 00:54:00,
2013-09-23 18:59:00,63.1,33.6,25.10,North,-999,0.0,0.0,33,0.00,,,-99.99,FreeWX 2.04,2013-09-24 00:59:00,
2013-09-23 19:04:00,62.8,34.0,25.10,North,-999,0.0,0.0,34,0.00,,,-99.99,FreeWX 2.04,2013-09-24 01:04:00,
2013-09-23 19:09:00,62.4,33.6,25.10,North,-999,0.0,0.0,34,0.00,,,-99.99,FreeWX 2.04,2013-09-24 01:09:00,
2013-09-23 19:14:00,62.2,33.4,25.10,North,-999,0.0,0.0,34,0.00,,,-99.99,FreeWX 2.04,2013-09-24 01:14:00,
2013-09-23 19:19:00,61.9,34.0,25.10,North,-999,0.0,0.0,35,0.00,,,-99.99,FreeWX 2.04,2013-09-24 01:19:00,
2013-09-23 19:24:00,61.2,35.4,25.13,North,-999,0.0,0.0,38,0.00,,,-99.99,FreeWX 2.04,2013-09-24 01:24:00,
2013-09-23 19:29:00,60.4,35.4,25.13,North,-999,0.0,3.6,39,0.00,,,-99.99,FreeWX 2.04,2013-09-24 01:29:00,
2013-09-23 19:34:00,60.4,34.0,25.13,North,-999,0.0,3.1,37,0.00,,,-99.99,FreeWX 2.04,2013-09-24 01:34:00,
2013-09-23 19:39:00,60.3,34.5,25.13,North,-999,0.0,4.0,38,0.00,,,-99.99,FreeWX 2.04,2013-09-24 01:39:00,
2013-09-23 19:44:00,59.7,36.5,25.13,SE,142,2.0,4.5,42,0.00,,,-99.99,FreeWX 2.04,2013-09-24 01:44:00,
2013-09-23 19:49:00,59.5,37.0,25.13,SE,139,3.0,4.5,43,0.00,,,-99.99,FreeWX 2.04,2013-09-24 01:49:00,
2013-09-23 19:54:00,59.5,37.0,25.13,SE,137,2.0,3.6,43,0.00,,,-99.99,FreeWX 2.04,2013-09-24 01:54:00,
2013-09-23 19:59:00,59.5,37.0,25.13,North,-999,0.0,0.0,43,0.00,,,-99.99,FreeWX 2.04,2013-09-24 01:59:00,
2013-09-23 20:04:00,59.4,37.9,25.13,North,-999,0.0,0.0,45,0.00,,,-99.99,FreeWX 2.04,2013-09-24 02:04:00,
2013-09-23 20:09:00,59.2,36.7,25.13,North,-999,0.0,0.0,43,0.00,,,-99.99,FreeWX 2.04,2013-09-24 02:09:00,
2013-09-23 20:19:00,59.0,36.5,25.13,North,-999,0.0,0.0,43,0.00,,,-99.99,FreeWX 2.04,2013-09-24 02:19:00,
2013-09-23 20:30:00,59.4,35.1,25.13,North,-999,0.0,0.0,40,0.00,,,-99.99,FreeWX 2.04,2013-09-24 02:30:00,
2013-09-23 20:35:00,59.5,34.5,25.13,North,-999,0.0,0.0,39,0.00,,,-99.99,FreeWX 2.04,2013-09-24 02:35:00,
2013-09-23 20:40:00,59.4,34.3,25.13,North,-999,0.0,4.9,39,0.00,,,-99.99,FreeWX 2.04,2013-09-24 02:40:00,
2013-09-23 20:45:00,59.2,34.9,25.13,North,-999,0.0,0.0,40,0.00,,,-99.99,FreeWX 2.04,2013-09-24 02:45:00,
2013-09-23 20:50:00,58.5,36.7,25.16,ESE,110,1.0,5.8,44,0.00,,,-99.99,FreeWX 2.04,2013-09-24 02:50:00,
2013-09-23 20:55:00,58.5,37.2,25.16,NNE,31,3.0,5.8,45,0.00,,,-99.99,FreeWX 2.04,2013-09-24 02:55:00,
2013-09-23 21:00:00,58.5,36.7,25.16,NNE,21,2.0,4.0,44,0.00,,,-99.99,FreeWX 2.04,2013-09-24 03:00:00,
2013-09-23 21:05:00,58.5,36.0,25.16,North,-999,0.0,0.0,43,0.00,,,-99.99,FreeWX 2.04,2013-09-24 03:05:00,
2013-09-23 21:10:00,58.5,36.0,25.16,North,-999,0.0,0.0,43,0.00,,,-99.99,FreeWX 2.04,2013-09-24 03:10:00,
2013-09-23 21:15:00,58.1,36.3,25.16,North,-999,0.0,5.4,44,0.00,,,-99.99,FreeWX 2.04,2013-09-24 03:15:00,
2013-09-23 21:20:00,57.9,36.7,25.16,NNE,12,2.0,5.4,45,0.00,,,-99.99,FreeWX 2.04,2013-09-24 03:20:00,
2013-09-23 21:25:00,57.7,36.5,25.16,NNE,12,2.0,4.0,45,0.00,,,-99.99,FreeWX 2.04,2013-09-24 03:25:00,
2013-09-23 21:30:00,57.2,37.2,25.16,North,-999,0.0,0.0,47,0.00,,,-99.99,FreeWX 2.04,2013-09-24 03:30:00,
2013-09-23 21:35:00,57.6,36.9,25.16,North,-999,0.0,0.0,46,0.00,,,-99.99,FreeWX 2.04,2013-09-24 03:35:00,
2013-09-23 21:40:00,57.7,36.5,25.16,NNE,13,1.0,5.8,45,0.00,,,-99.99,FreeWX 2.04,2013-09-24 03:40:00,
2013-09-23 21:45:00,57.2,36.7,25.16,North,11,1.0,0.0,46,0.00,,,-99.99,FreeWX 2.04,2013-09-24 03:45:00,
2013-09-23 21:50:00,57.2,36.1,25.16,North,-999,0.0,0.0,45,0.00,,,-99.99,FreeWX 2.04,2013-09-24 03:50:00,
2013-09-23 21:55:00,57.2,36.1,25.16,North,-999,0.0,0.0,45,0.00,,,-99.99,FreeWX 2.04,2013-09-24 03:55:00,
2013-09-23 22:00:00,57.2,36.1,25.16,North,-999,0.0,4.0,45,0.00,,,-99.99,FreeWX 2.04,2013-09-24 04:00:00,
2013-09-23 22:05:00,57.2,36.1,25.16,ENE,65,1.0,5.4,45,0.00,,,-99.99,FreeWX 2.04,2013-09-24 04:05:00,
2013-09-23 22:10:00,56.8,35.8,25.16,East,94,1.0,4.5,45,0.00,,,-99.99,FreeWX 2.04,2013-09-24 04:10:00,
2013-09-23 22:15:00,56.7,35.6,25.16,North,-999,0.0,0.0,45,0.00,,,-99.99,FreeWX 2.04,2013-09-24 04:15:00,
2013-09-23 22:20:00,56.8,35.8,25.16,North,-999,0.0,0.0,45,0.00,,,-99.99,FreeWX 2.04,2013-09-24 04:20:00,
2013-09-23 22:25:00,56.8,35.8,25.16,North,-999,0.0,3.1,45,0.00,,,-99.99,FreeWX 2.04,2013-09-24 04:25:00,
2013-09-23 22:30:00,56.7,35.6,25.16,North,-999,0.0,0.0,45,0.00,,,-99.99,FreeWX 2.04,2013-09-24 04:30:00,
2013-09-23 22:35:00,56.5,35.4,25.16,North,-999,0.0,0.0,45,0.00,,,-99.99,FreeWX 2.04,2013-09-24 04:35:00,
2013-09-23 22:40:00,56.7,35.6,25.16,North,-999,0.0,0.0,45,0.00,,,-99.99,FreeWX 2.04,2013-09-24 04:40:00,
2013-09-23 22:45:00,57.0,34.7,25.16,North,-999,0.0,4.9,43,0.00,,,-99.99,FreeWX 2.04,2013-09-24 04:45:00,
2013-09-23 22:50:00,56.8,35.2,25.16,North,-999,0.0,2.7,44,0.00,,,-99.99,FreeWX 2.04,2013-09-24 04:50:00,
2013-09-23 22:55:00,56.7,35.1,25.16,North,-999,0.0,0.0,44,0.00,,,-99.99,FreeWX 2.04,2013-09-24 04:55:00,
2013-09-23 23:00:00,56.3,35.2,25.16,North,-999,0.0,0.0,45,0.00,,,-99.99,FreeWX 2.04,2013-09-24 05:00:00,
2013-09-23 23:05:00,55.9,34.9,25.16,North,-999,0.0,0.0,45,0.00,,,-99.99,FreeWX 2.04,2013-09-24 05:05:00,
2013-09-23 23:10:00,56.1,35.1,25.16,North,-999,0.0,0.0,45,0.00,,,-99.99,FreeWX 2.04,2013-09-24 05:10:00,
2013-09-23 23:15:00,55.6,36.1,25.16,North,-999,0.0,0.0,48,0.00,,,-99.99,FreeWX 2.04,2013-09-24 05:15:00,
2013-09-23 23:20:00,55.9,36.0,25.19,North,-999,0.0,0.0,47,0.00,,,-99.99,FreeWX 2.04,2013-09-24 05:20:00,
2013-09-23 23:25:00,56.7,35.6,25.19,North,-999,0.0,0.0,45,0.00,,,-99.99,FreeWX 2.04,2013-09-24 05:25:00,
2013-09-23 23:30:00,57.0,34.2,25.19,ENE,75,1.0,4.9,42,0.00,,,-99.99,FreeWX 2.04,2013-09-24 05:30:00,
2013-09-23 23:35:00,56.8,34.0,25.19,NNW,348,3.0,5.4,42,0.00,,,-99.99,FreeWX 2.04,2013-09-24 05:35:00,
2013-09-23 23:40:00,56.7,34.3,25.19,NNW,333,3.0,4.5,43,0.00,,,-99.99,FreeWX 2.04,2013-09-24 05:40:00,
2013-09-23 23:45:00,56.5,34.9,25.19,NNW,337,3.0,5.4,44,0.00,,,-99.99,FreeWX 2.04,2013-09-24 05:45:00,
2013-09-23 23:50:00,56.1,35.1,25.19,NNW,343,3.0,5.4,45,0.00,,,-99.99,FreeWX 2.04,2013-09-24 05:50:00,
2013-09-23 23:55:00,56.3,34.7,25.19,NNW,344,4.0,6.3,44,0.00,,,-99.99,FreeWX 2.04,2013-09-24 05:55:00,